Location: Albany
(42.6526°N, 73.7562°W)
Time: 13:41:33
(UTC+00:00)

USA 229 DEB - Pass Details

Date: 19 November 2019
Orbit: 997 x 1215 km, 63.4° (Epoch: 04 December)

Event Time Altitude Azimuth Distance (km) Brightness Sun altitude
Rises 22:15:07 0° 233° (SW) 3,723 8.2 -8.6°
Reaches altitude 10° 22:17:46 10° 238° (WSW) 2,792 7.4 -9.1°
Maximum altitude 22:24:07 50° 314° (NW) 1,301 4.4 -10.2°
Drops below altitude 10° 22:30:49 10° 29° (NNE) 2,930 5.6 -11.4°
Enters shadow 22:32:23 - 33° (NNE) 3,475 5.9 -11.7°
